Weather History for KLHQ - December, 2013

Change the Weather History Date:

Tuesday, December 17, 2013

  Actual Average Record
Temperature  
Mean Temperature 32 °F -  
Max Temperature 36 °F 37 °F 62 °F (1984)
Min Temperature 28 °F 21 °F -13 °F (1989)
Degree Days  
Heating Degree Days 33    
Moisture  
Dew Point 25 °F    
Average Humidity 82    
Maximum Humidity 93    
Minimum Humidity 74    
Precipitation  
Precipitation 0.01 in - - ()
Sea Level Pressure  
Sea Level Pressure 30.04 in    
Wind  
Wind Speed 8 mph (West)    
Max Wind Speed 15 mph    
Max Gust Speed 22 mph    
Visibility 6 miles    
Events Snow    
Averages and records for this station are not official NWS values.
T = Trace of Precipitation, MM = Missing Value Source: NWS Daily Summary

Daily Weather History Graph

Daily Weather History Graph

Search for Another Location

Airport or City:

Trip Planner

Search our weather history database for the weather conditions in past years. The results will help you decide how hot, cold, wet, or windy it might be!

Date:

Astronomy

Dec. 17, 2013 Rise Set
Actual Time 7:46 AM EST 5:07 PM EST
Civil Twilight 7:15 AM EST 5:38 PM EST
Nautical Twilight 6:41 AM EST 6:12 PM EST
Astronomical Twilight 6:08 AM EST 6:45 PM EST
Moon 5:46 PM EST (12/17) 7:41 AM EST (12/17)
Length of Visible Light 10h 22m
Length of Day
9h 21m
Full, 100% of the Moon is Illuminated
Dec 17
Full
Dec 25
Last Quarter
Jan 1
New
Jan 7
First Quarter
Jan 15
Full

Hourly Weather History & Observations

Time (EST) Temp. Windchill Dew Point Humidity Pressure Visibility Wind Dir Wind Speed Gust Speed Precip Events Conditions
12:53 AM 32.0 °F 24.8 °F 28.9 °F 88% 29.99 in 5.0 mi SSE 8.1 mph - N/A   Overcast
1:02 AM 32.0 °F 25.6 °F 28.4 °F 87% 29.96 in 5.0 mi SSE 6.9 mph - N/A   Overcast
1:53 AM 34.0 °F 28.0 °F 28.9 °F 82% 29.98 in 7.0 mi SW 6.9 mph - N/A   Scattered Clouds
2:53 AM 36.0 °F 29.6 °F 30.0 °F 79% 30.00 in 9.0 mi West 8.1 mph - N/A   Mostly Cloudy
3:53 AM 35.1 °F 29.3 °F 30.0 °F 82% 30.00 in 7.0 mi West 6.9 mph - N/A   Overcast
4:05 AM 35.6 °F 28.6 °F 30.2 °F 81% 29.97 in 7.0 mi West 9.2 mph - N/A   Overcast
4:53 AM 34.0 °F 26.0 °F 30.0 °F 85% 29.99 in 5.0 mi WNW 10.4 mph - N/A   Overcast
5:53 AM 32.0 °F 26.4 °F 28.9 °F 88% 29.99 in 5.0 mi WNW 5.8 mph - N/A   Overcast
6:05 AM 32.0 °F 24.8 °F 28.4 °F 87% 29.97 in 4.0 mi NW 8.1 mph - N/A   Overcast
6:19 AM 30.2 °F 22.6 °F 28.4 °F 93% 29.98 in 3.0 mi NW 8.1 mph - N/A   Overcast
6:53 AM 30.0 °F 24.1 °F 27.0 °F 88% 30.02 in 4.0 mi WNW 5.8 mph - N/A   Overcast
7:06 AM 30.2 °F 21.3 °F 26.6 °F 86% 30.02 in 4.0 mi WNW 10.4 mph - N/A   Overcast
7:27 AM 30.2 °F 21.9 °F 26.6 °F 86% 30.04 in 5.0 mi WNW 9.2 mph - N/A   Overcast
7:53 AM 28.9 °F 21.1 °F 25.0 °F 85% 30.06 in 5.0 mi WNW 8.1 mph - N/A   Overcast
8:53 AM 28.0 °F 20.8 °F 23.0 °F 81% 30.08 in 6.0 mi NW 6.9 mph - N/A   Haze
9:53 AM 28.0 °F 22.8 °F 24.1 °F 85% 30.09 in 5.0 mi West 4.6 mph - N/A   Overcast
10:53 AM 28.9 °F 21.9 °F 23.0 °F 78% 30.09 in 7.0 mi West 6.9 mph - N/A   Overcast
11:53 AM 28.9 °F 22.8 °F 23.0 °F 78% 30.07 in 6.0 mi NW 5.8 mph - N/A   Haze
12:53 PM 28.9 °F 21.1 °F 23.0 °F 78% 30.04 in 7.0 mi WSW 8.1 mph - N/A   Overcast
1:38 PM 30.2 °F 24.3 °F 23.0 °F 75% 29.99 in 8.0 mi West 5.8 mph - N/A   Overcast
1:53 PM 30.0 °F 23.2 °F 23.0 °F 75% 30.01 in 8.0 mi WSW 6.9 mph - N/A   Overcast
2:53 PM 30.0 °F 25.2 °F 24.1 °F 79% 29.98 in 8.0 mi West 4.6 mph - N/A   Overcast
3:53 PM 30.0 °F 21.7 °F 23.0 °F 75% 30.02 in 8.0 mi WSW 9.2 mph - N/A   Overcast
4:53 PM 28.0 °F 21.7 °F 21.9 °F 78% 30.04 in 8.0 mi WSW 5.8 mph 17.3 mph N/A   Mostly Cloudy
5:07 PM 28.4 °F 22.2 °F 21.2 °F 74% 30.01 in 8.0 mi SW 5.8 mph - N/A   Mostly Cloudy
5:53 PM 28.0 °F - 21.9 °F 78% 30.04 in 8.0 mi Calm Calm - N/A   Overcast
6:53 PM 28.0 °F 20.8 °F 23.0 °F 81% 30.05 in 5.0 mi WSW 6.9 mph - 0.00 in Snow Light Snow
7:04 PM 28.4 °F 19.7 °F 23.0 °F 80% 30.03 in 2.0 mi West 9.2 mph - 0.00 in Snow Light Snow
7:07 PM 28.4 °F 20.4 °F 24.8 °F 86% 30.03 in 1.2 mi WSW 8.1 mph - 0.00 in Snow Light Snow
7:12 PM 28.4 °F 20.4 °F 24.8 °F 86% 30.03 in 0.8 mi WSW 8.1 mph - 0.00 in Snow Light Snow
7:33 PM 28.4 °F 19.7 °F 24.8 °F 86% 30.04 in 1.2 mi West 9.2 mph - 0.01 in Snow Light Snow
7:38 PM 28.4 °F 19.1 °F 24.8 °F 86% 30.05 in 2.5 mi West 10.4 mph - 0.01 in Snow Light Snow
7:53 PM 28.0 °F 18.1 °F 25.0 °F 88% 30.08 in 4.0 mi West 11.5 mph 17.3 mph 0.01 in Snow Light Snow
8:18 PM 28.4 °F 17.0 °F 24.8 °F 86% 30.06 in 8.0 mi West 15.0 mph 21.9 mph 0.00 in   Overcast
8:53 PM 28.9 °F 18.6 °F 23.0 °F 78% 30.10 in 9.0 mi WNW 12.7 mph 19.6 mph 0.00 in   Overcast
9:53 PM 28.0 °F 18.1 °F 21.9 °F 78% 30.14 in 9.0 mi WNW 11.5 mph 17.3 mph N/A   Overcast
10:09 PM 28.4 °F 19.1 °F 21.2 °F 74% 30.11 in 8.0 mi West 10.4 mph 19.6 mph N/A   Overcast
10:53 PM 28.9 °F 22.8 °F 21.9 °F 75% 30.15 in 8.0 mi West 5.8 mph - N/A   Overcast
11:53 PM 28.9 °F 21.9 °F 23.0 °F 78% 30.15 in 8.0 mi West 6.9 mph - N/A   Overcast